Notices

What's New in latest Release from April 7th, 2021:

- Updated Glossary, including Speed of Maximum Gust, and Total Hourly Precipitation

- Updated national and regional climate services offices contacts and prices information

- Addition of station inventory lists for 1981-2010, 1971-2000, and 1961-1990 Normals.

If you haven't already, please take our survey and provide feedback about our website: https://eccc.sondage-survey.ca/f/LanguageSelection.aspx?s=442ca660-fcf1-47c0-95a9-59707d6fd709

Hourly Data Report for November 27, 2017

VICTORIA UNIVERSITY CS
BRITISH COLUMBIA

48°27'25.200" N
123°18'16.600" W
60.10 m
1018598
71783
WYJ

Download Data

Hourly Data (November 2017)
Hourly Data Report for November 27, 2017
TIME
LST
Temp Definition
°C
Dew Point Definition
°C
Rel Hum Definition
%
Precip. Amount Definition
mm

Wind Dir Definition
10's deg

Wind Spd Definition
km/h
Visibility Definition
km
Stn Press Definition
kPa
Hmdx Definition


Wind Chill Definition


Weather Definition


00:00 6.6 4.2 84 0.0 17 5   100.21     LegendNANA
01:00 6.5 4.9 90 0.0 23 4   100.30     LegendNANA
02:00 6.3 3.6 83 0.0 24 7   100.36     LegendNANA
03:00 6.5 3.9 84 0.0 23 6   100.43     LegendNANA
04:00 6.1 4.3 88 0.0 23 6   100.49     LegendNANA
05:00 6.0 4.3 89 0.0 22 4   100.57     LegendNANA
06:00 6.1 4.7 90 0.0 26 7   100.66     LegendNANA
07:00 5.3 3.9 91 0.0 24 6   100.77     LegendNANA
08:00 4.7 3.7 93 0.0 26 4   100.87     LegendNANA
09:00 7.2 5.2 88 0.0 24 3   100.91     LegendNANA
10:00 8.5 4.0 73 0.0 23 6   101.03     LegendNANA
11:00 9.4 4.3 71 0.0 23 5   101.10     LegendNANA
12:00 9.7 4.3 69 0.0 24 7   101.12     LegendNANA
13:00 10.3 4.2 66 0.0 24 8   101.16     LegendNANA
14:00 8.9 3.7 70 0.0 24 2   101.20     LegendNANA
15:00 8.1 4.4 77 0.0 15 1   101.25     LegendNANA
16:00 8.0 5.9 87 0.2 14 1   101.25     LegendNANA
17:00 7.8 5.1 84 0.0 15 5   101.24     LegendNANA
18:00 7.5 5.1 85 0.0 13 4   101.19     LegendNANA
19:00 7.3 5.1 86 0.0 13 3   101.13     LegendNANA
20:00 7.5 5.3 86 0.0 13 2   101.12     LegendNANA
21:00 7.4 5.1 85 0.0 11 2   101.03     LegendNANA
22:00 7.2 5.2 87 0.0 10 3   100.95     LegendNANA
23:00 7.2 4.8 85 0.0 8 2   100.89     LegendNANA

Notes on Data Quality.

Legend

  • E = Estimated
  • M = Missing
  • NA = Not Available*
  • [empty] = Indicates an unobserved value
Date modified: